Weather History for Rifle, CO

Change the Weather History Date:

Sunday, October 23, 2011

  Actual Average Record
Temperature  
Mean Temperature 50 °F 46 °F  
Max Temperature 70 °F 61 °F 79 °F (2003)
Min Temperature 30 °F 31 °F 15 °F (1935)
Degree Days  
Heating Degree Days 15 19  
Month to date heating degree days 332  
Since 1 July heating degree days 478  
Cooling Degree Days 0 0  
Month to date cooling degree days 0  
Year to date cooling degree days 541  
Moisture  
Dew Point 23 °F    
Average Humidity 44    
Maximum Humidity 75    
Minimum Humidity 13    
Precipitation  
Precipitation 0.00 in 0.07 in 1.02 in (1953)
Month to date precipitation 1.41  
Year to date precipitation 11.88  
Sea Level Pressure  
Sea Level Pressure 30.22 in    
Wind  
Wind Speed 2 mph (SE)    
Max Wind Speed 8 mph    
Max Gust Speed -    
Visibility 10 miles    
Events      
T = Trace of Precipitation, MM = Missing Value Source: NWS Daily Summary

Daily Weather History Graph

Daily Weather History Graph

Search for Another Location

Airport:

Trip Planner

Search our weather history database for the weather conditions in past years. The results will help you decide how hot, cold, wet, or windy it might be!

Date:

Astronomy

Oct. 23, 2011 Rise Set
Actual Time 7:29 AM MDT 6:20 PM MDT
Civil Twilight 7:01 AM MDT 6:48 PM MDT
Nautical Twilight 6:30 AM MDT 7:19 PM MDT
Astronomical Twilight 5:59 AM MDT 7:50 PM MDT
Moon 3:40 AM MDT (10/23) 4:12 PM MDT (10/23)
Length of Visible Light 11h 46m
Length of Day
10h 51m
Waning Crescent, 14% of the Moon is Illuminated
Oct 23
Waning Crescent
Oct 26
New
Nov 2
First Quarter
Nov 10
Full
Nov 18
Last Quarter

Hourly Weather History & Observations

Time (MDT) Temp. Windchill Dew Point Humidity Pressure Visibility Wind Dir Wind Speed Gust Speed Precip Events Conditions
12:53 AM 39.9 °F - 24.1 °F 53% 30.22 in 10.0 mi Calm Calm - N/A   Clear
1:53 AM 36.0 °F 33.3 °F 24.1 °F 62% 30.23 in 10.0 mi ESE 3.5 mph - N/A   Clear
2:53 AM 36.0 °F 33.3 °F 24.1 °F 62% 30.23 in 10.0 mi SE 3.5 mph - N/A   Clear
3:53 AM 34.0 °F 29.8 °F 24.1 °F 67% 30.23 in 10.0 mi East 4.6 mph - N/A   Clear
4:53 AM 35.1 °F - 24.1 °F 64% 30.24 in 10.0 mi Calm Calm - N/A   Clear
5:53 AM 30.9 °F - 23.0 °F 72% 30.28 in 10.0 mi Calm Calm - N/A   Clear
6:53 AM 32.0 °F - 23.0 °F 69% 30.30 in 10.0 mi Calm Calm - N/A   Clear
7:53 AM 30.0 °F 24.1 °F 23.0 °F 75% 30.35 in 10.0 mi East 5.8 mph - N/A   Clear
8:53 AM 37.9 °F - 25.0 °F 60% 30.35 in 10.0 mi Calm Calm - N/A   Clear
9:53 AM 46.0 °F - 27.0 °F 47% 30.32 in 10.0 mi Calm Calm - N/A   Clear
10:53 AM 52.0 °F - 26.1 °F 37% 30.30 in 10.0 mi Variable 3.5 mph - N/A   Clear
11:53 AM 55.9 °F - 26.1 °F 32% 30.26 in 10.0 mi Calm Calm - N/A   Clear
12:53 PM 61.0 °F - 25.0 °F 25% 30.20 in 10.0 mi Calm Calm - N/A   Clear
1:53 PM 66.0 °F - 23.0 °F 20% 30.16 in 10.0 mi Calm Calm - N/A   Clear
2:53 PM 68.0 °F - 23.0 °F 18% 30.13 in 10.0 mi Variable 3.5 mph - N/A   Clear
3:53 PM 70.0 °F - 24.1 °F 18% 30.11 in 10.0 mi West 6.9 mph - N/A   Clear
4:53 PM 70.0 °F - 17.1 °F 13% 30.10 in 10.0 mi WSW 6.9 mph - N/A   Clear
6:53 PM 60.1 °F - 17.1 °F 19% 30.14 in 10.0 mi Variable 4.6 mph - N/A   Clear
7:53 PM 50.0 °F - 25.0 °F 38% 30.20 in 10.0 mi SSE 8.1 mph - N/A   Clear
8:53 PM 48.9 °F - 24.1 °F 38% 30.19 in 10.0 mi ESE 4.6 mph - N/A   Clear
9:53 PM 46.0 °F - 23.0 °F 40% 30.19 in 10.0 mi Calm Calm - N/A   Clear
10:53 PM 45.0 °F - 21.9 °F 40% 30.17 in 10.0 mi Calm Calm - N/A   Clear
11:53 PM 41.0 °F - 23.0 °F 49% 30.17 in 10.0 mi Calm Calm - N/A   Clear